This is the latest recevied weather packets stored in our database for station/object VA3ZFM-10. If no packets are shown the sender has not sent any weather packets the latest 10 day(s).
| Time | Temp. | Humidity | Pressure | Rain* | Wind** | Luminosity | Snow |
|---|---|---|---|---|---|---|---|
| 1777499204 | 8.33° C | 87% | 1008.4 hPa | 0 mm | - | - | - |
| 1777498901 | 8.33° C | 89% | 1008.5 hPa | 0 mm | - | - | - |
| 1777498598 | 8.33° C | 88% | 1008.4 hPa | 0 mm | - | - | - |
| 1777498293 | 8.33° C | 88% | 1008.6 hPa | 0 mm | - | - | - |
| 1777497992 | 8.33° C | 89% | 1008.4 hPa | 0 mm | - | - | - |
| 1777497688 | 8.33° C | 88% | 1008.4 hPa | 0 mm | - | - | - |
| 1777497385 | 8.89° C | 87% | 1008.5 hPa | 1.78 mm | - | - | - |
| 1777497080 | 8.89° C | 86% | 1008.6 hPa | 0 mm | - | - | - |
| 1777496777 | 8.89° C | 82% | 1008.7 hPa | 0 mm | - | - | - |
| 1777496474 | 9.44° C | 80% | 1008.9 hPa | 0 mm | - | - | - |
| 1777496171 | 9.44° C | 78% | 1008.7 hPa | 0 mm | - | - | - |
| 1777495867 | 9.44° C | 78% | 1008.8 hPa | 0 mm | - | - | - |
| 1777495562 | 10° C | 76% | 1008.9 hPa | 0 mm | - | - | - |
| 1777495258 | 10° C | 72% | 1008.6 hPa | 0 mm | - | - | - |
| 1777494956 | 10° C | 71% | 1008.4 hPa | 0 mm | - | - | - |
| 1777494653 | 10.56° C | 69% | 1008.6 hPa | 0 mm | - | - | - |
| 1777494350 | 10.56° C | 69% | 1008.6 hPa | 0 mm | - | - | - |
| 1777494047 | 10.56° C | 67% | 1008.3 hPa | 0 mm | - | - | - |
| 1777493745 | 10.56° C | 67% | 1008.5 hPa | 0 mm | - | - | - |
| 1777493443 | 10.56° C | 66% | 1008.5 hPa | 0 mm | - | - | - |
| 1777493138 | 10.56° C | 66% | 1008.6 hPa | 0 mm | - | - | - |
| 1777492835 | 10.56° C | 66% | 1008.5 hPa | 0 mm | - | - | - |
| 1777492532 | 10.56° C | 66% | 1008.5 hPa | 0 mm | - | - | - |
| 1777492228 | 10.56° C | 66% | 1008.4 hPa | 0 mm | - | - | - |
| 1777491926 | 10.56° C | 66% | 1008.8 hPa | 0 mm | - | - | - |
* Rain latest hour (hover to see other rain measurements)
** Current wind speed in m/s (hover to see current wind gust speed)